Regional Weather Roundup
Issued by NWS

Home | Current Version | Previous Version | Graphics & Text | Print | Product List | Glossary On
Versions: 1 2 3 4 5 6 7 8 9 10 11 12 13 14 15 16 17 18 19 20 21 22 23 24 25 26 27 28 29 30 31 32 33 34 35 36 37 38 39 40 41 42 43 44 45 46 47 48 49 50
000
ASUS43 KIND 251209
RWRIN

WEATHER ROUNDUP FOR INDIANA
NATIONAL WEATHER SERVICE INDIANAPOLIS IN
800 AM EDT THU AUG 25 2016

NOTE: "FAIR" INDICATES FEW OR NO CLOUDS BELOW 12,000 FEET WITH NO
SIGNIFICANT WEATHER AND/OR OBSTRUCTIONS TO VISIBILITY.

* - STATION DOES NOT REPORT WEATHER SUCH AS PRECIPITATION OR FOG.

+ - STATION NOT QUALITY CONTROLLED BY THE NATIONAL WEATHER SERVICE.
    USE DATA WITH CAUTION...ESPECIALLY DEWPOINT AND RELATIVE
    HUMIDITY OBSERVATIONS.

INZ001>003-010>013-019-020-251300-
NORTHWEST INDIANA

CITY           SKY/WX    TMP DP  RH WIND       PRES   REMARKS
GARY /AIRPORT/ MOCLDY    72  70  94 SW6       29.99R
KNOX *+        MOCLDY    68  57  68 SE3       29.99S
LA PORTE +     CLOUDY   N/A N/A N/A W5        30.01R
                                      6HR PCP:  0.08;

MICHIGAN CITY+ CLOUDY    70  70 100 MISG      30.00R
MONTICELLO +   MOCLDY    70  66  87 S3        30.00R
6HR MIN TEMP:  69; 6HR MAX TEMP:  73;

RENSSELAER +   MOCLDY    68  68 100 CALM      30.03R
VALPARAISO     CLOUDY    69  67  93 S6        30.02R
6HR MIN TEMP:  68; 6HR MAX TEMP:  73; 6HR PCP:  0.13;


$$

LMZ046-743>745-251300-
SOUTHERN LAKE MICHIGAN

STATION/POSITION TIME  TEMP    WIND        PRES    WAVE
                       AIR SEA DIR/SP/G            HT
                 (UTC) (F)     (DEG/KT/KT) (MB)    (FT)
BURNS HARBOR     1100   71     180/  5/ 10 1014.9F
MICHIGAN CITY    1100   72     180/  9/ 10   N/A
5NW MICH CITY    1200   72 74  220/ 12/ 16   N/A     1

$$

INZ004-005-014>016-021>024-251300-
NORTH CENTRAL INDIANA

CITY           SKY/WX    TMP DP  RH WIND       PRES   REMARKS
ELKHART        LGT RAIN  72  68  88 SW3       29.99F
GOSHEN         LGT RAIN  71  67  87 S3        30.00F
6HR MIN TEMP:  70; 6HR MAX TEMP:  71; 6HR PCP:  0.01;

LOGANSPORT +   CLOUDY    68  68 100 SE6       30.02S
PERU/GRISSOM   MOCLDY    69  69 100 S8        30.01S
6HR MIN TEMP:  69; 6HR MAX TEMP:  73; 6HR PCP:  0.85;

ROCHESTER +    CLOUDY    73  72  94 S5        30.01R
SOUTH BEND     CLOUDY    69  69 100 S6        29.98F
6HR MIN TEMP:  69; 6HR MAX TEMP:  71; 6HR PCP:  0.18;

WARSAW +       CLOUDY    70  70 100 CALM      30.00F FOG

$$

INZ006>009-017-018-025>027-251300-
NORTHEAST INDIANA

CITY           SKY/WX    TMP DP  RH WIND       PRES   REMARKS
ANGOLA *+      SUNNY     72  64  78 CALM      30.01F
AUBURN +       CLOUDY    70  68  94 CALM      30.02F
FORT WAYNE     LGT RAIN  70  68  93 SW6       30.03S
6HR MIN TEMP:  68; 6HR MAX TEMP:  73; 6HR PCP:  0.02;

HUNTINGTON +   CLOUDY   N/A N/A N/A SW5       30.02R
                                      6HR PCP:  0.24;


$$

INZ028-029-035-036-043>045-051>053-251300-
WEST CENTRAL INDIANA

CITY           SKY/WX    TMP DP  RH WIND       PRES   REMARKS
CRAWFORDSVL +  CLOUDY    68  68 100 CALM      30.05R
6HR MIN TEMP:  67; 6HR MAX TEMP:  74; 6HR PCP:  0.02;

GREENCASTLE +  PTCLDY    72  72 100 CALM      30.07R FOG
LAFAYETTE      MOCLDY    69  69 100 CALM      30.02R
6HR MIN TEMP:  68; 6HR MAX TEMP:  73; 6HR PCP:  0.13;

TERRE HAUTE    MOCLDY    75  72  90 CALM      30.06R
6HR MIN TEMP:  74; 6HR MAX TEMP:  79;


$$

INZ030>032-037>040-046>048-054>057-064-065-251300-
CENTRAL INDIANA

CITY           SKY/WX    TMP DP  RH WIND       PRES   REMARKS
COLUMBUS       PTCLDY    73  73 100 SW5       30.07R
INDIANAPOLIS   MOCLDY    75  74  96 SW5       30.05R
6HR MIN TEMP:  75; 6HR MAX TEMP:  77;

-EAGLE CREEK   CLEAR     76  71  85 S3        30.05R
6HR MIN TEMP:  75; 6HR MAX TEMP:  78; 6HR PCP: TRACE;

MARION +       CLOUDY    69  69 100 S6        30.04F
MT COMFORT *+  CLEAR     72  72 100 CALM      30.07R
SHELBYVILLE    CLOUDY    76  73  91 S6        30.06S
6HR MIN TEMP:  75; 6HR MAX TEMP:  77;

ZIONSVILLE +   PTCLDY    72  71  97 CALM      30.06S
6HR MIN TEMP:  71; 6HR MAX TEMP:  75; 6HR PCP:  0.01;


$$

INZ033-034-041-042-049-050-058-059-251300-
EAST CENTRAL INDIANA

CITY           SKY/WX    TMP DP  RH WIND       PRES   REMARKS
MUNCIE         PTCLDY    74  71  91 CALM      30.06F
6HR MIN TEMP:  73; 6HR MAX TEMP:  77; 6HR PCP:  0.44;


$$

INZ060-061-067>069-081>083-085>088-251300-
SOUTHWEST INDIANA

CITY           SKY/WX    TMP DP  RH WIND       PRES   REMARKS
EVANSVILLE     CLEAR     76  73  91 SW3       30.09R
6HR MIN TEMP:  74; 6HR MAX TEMP:  78;

HUNTINGBURG *+ PTCLDY    75  72  88 S6        30.09S
6HR MIN TEMP:  75; 6HR MAX TEMP:  77;

WASHINGTON +   MOCLDY    76  76 100 MISG      30.07R
6HR MIN TEMP:  76; 6HR MAX TEMP:  79;


$$

INZ062-063-066-070>080-084-089>092-251300-
SOUTH CENTRAL AND SOUTHEAST INDIANA

CITY           SKY/WX    TMP DP  RH WIND       PRES   REMARKS
BLOOMINGTON    CLOUDY    76  73  91 SW5       30.08R
6HR MIN TEMP:  76; 6HR MAX TEMP:  79;

MADISON *+     CLEAR     73  72  94 SW3       30.12R

$$





USA.gov is the U.S. government's official web portal to all federal, state and local government web resources and services.